Change the Weather History Date:

Thursday, March 14, 2013

  Actual Average Record
Temperature  
Mean Temperature 54 °F -  
Max Temperature 63 °F 67 °F 71 °F (1997)
Min Temperature 46 °F 49 °F 41 °F (1998)
Degree Days  
Heating Degree Days 10    
Growing Degree Days 4 (Base 50)    
Moisture  
Dew Point 29 °F    
Average Humidity 41    
Maximum Humidity 57    
Minimum Humidity 13    
Precipitation  
Precipitation 0.00 in 0.07 in - ()
Sea Level Pressure  
Sea Level Pressure 30.04 in    
Wind  
Wind Speed 11 mph ()    
Max Wind Speed 18 mph    
Max Gust Speed 30 mph    
Visibility 16.0 miles    
Events      
Averages and records for this station are not official NWS values.
T = Trace of Precipitation, MM = Missing Value Source: Averaged Metar Reports

Daily Weather History Graph

Daily Weather History Graph

Search for Another Location

Airport or City:

Trip Planner

Search our weather history database for the weather conditions in past years. The results will help you decide how hot, cold, wet, or windy it might be!

Date:

Astronomy

Mar. 14, 2013 Rise Set
Actual Time 7:30 AM CET 7:24 PM CET
Civil Twilight 7:04 AM CET 7:50 PM CET
Nautical Twilight 6:34 AM CET 8:20 PM CET
Astronomical Twilight 6:04 AM CET 8:50 PM CET
Moon 8:41 AM CET (3/14) 10:20 PM CET (3/14)
Length of Visible Light 12h 45m
Length of Day
11h 54m
Waxing Crescent, 7% of the Moon is Illuminated
Mar 14
Waxing Crescent
Mar 19
First Quarter
Mar 27
Full
Apr 3
Last Quarter
Apr 10
New

Hourly Weather History & Observations

Time (CET) Temp. Windchill Dew Point Humidity Pressure Visibility Wind Dir Wind Speed Gust Speed Precip Events Conditions
12:00 AM 48.2 °F - 30.2 °F 50% 29.98 in - West 3.5 mph - N/A   Clear
12:30 AM 48.2 °F - 32.0 °F 54% 29.98 in - WNW 8.1 mph - N/A   Clear
1:00 AM 49 °F - 31 °F 38% 29.99 in 16 mi West 9.2 mph - -   Scattered Clouds
1:00 AM 48.2 °F - 30.2 °F 50% 29.98 in - West 9.2 mph - N/A   Clear
1:30 AM 48.2 °F - 30.2 °F 50% 29.98 in - West 6.9 mph - N/A   Clear
2:00 AM 48.2 °F - 28.4 °F 46% 29.98 in - West 8.1 mph - N/A   Clear
2:30 AM 50.0 °F - 28.4 °F 43% 30.01 in - West 11.5 mph - N/A   Clear
3:00 AM 48.2 °F - 28.4 °F 46% 30.01 in - WNW 12.7 mph - N/A   Clear
3:30 AM 48.2 °F - 28.4 °F 46% 30.01 in - WNW 13.8 mph - N/A   Clear
4:00 AM 48.2 °F - 30.2 °F 50% 29.98 in - WNW 12.7 mph - N/A   Clear
4:30 AM 48.2 °F - 30.2 °F 50% 29.98 in - WNW 12.7 mph - N/A   Clear
5:00 AM 46.4 °F 40.1 °F 30.2 °F 53% 30.01 in - WNW 15.0 mph - N/A   Clear
5:30 AM 46.4 °F 39.8 °F 30.2 °F 53% 30.01 in - WNW 16.1 mph - N/A   Clear
6:00 AM 46.4 °F 39.8 °F 30.2 °F 53% 30.01 in - WNW 16.1 mph - N/A   Clear
6:30 AM 46.4 °F 40.1 °F 30.2 °F 53% 30.01 in - WNW 15.0 mph - N/A   Clear
7:00 AM 47 °F - 31 °F 41% 30.03 in 16 mi WNW 16.1 mph - -   Scattered Clouds
7:00 AM 46.4 °F 39.8 °F 30.2 °F 53% 30.01 in - WNW 16.1 mph - N/A   Clear
7:30 AM 46.4 °F 39.5 °F 30.2 °F 53% 30.04 in - West 17.3 mph - N/A   Clear
8:00 AM 46.4 °F 39.2 °F 30.2 °F 53% 30.04 in - West 18.4 mph - N/A   Clear
8:30 AM 46.4 °F 40.1 °F 32.0 °F 57% 30.04 in - WNW 15.0 mph - N/A   Clear
9:00 AM 48.2 °F - 30.2 °F 50% 30.06 in - West 16.1 mph - N/A   Clear
9:30 AM 50.0 °F - 32.0 °F 50% 30.06 in - West 16.1 mph - N/A   Clear
10:00 AM 51.8 °F - 30.2 °F 44% 30.06 in - WNW 15.0 mph - N/A   Clear
11:00 AM 55.4 °F - 28.4 °F 36% 30.06 in - WNW 13.8 mph - N/A   Clear
11:30 AM 55.4 °F - 26.6 °F 33% 30.06 in - WNW 12.7 mph - N/A   Clear
12:00 PM 57.2 °F - 24.8 °F 29% 30.06 in - NW 13.8 mph - N/A   Clear
12:30 PM 57.2 °F - 26.6 °F 31% 30.06 in - WNW 15.0 mph - N/A   Clear
1:00 PM 60 °F - 22 °F 13% 30.08 in 25 mi WNW 12.7 mph - -  
1:00 PM 59.0 °F - 28.4 °F 31% 30.06 in - WNW 12.7 mph - N/A   Clear
1:30 PM 59.0 °F - 32.0 °F 36% 30.06 in - WNW 15.0 mph - N/A   Clear
2:00 PM 59.0 °F - 30.2 °F 34% 30.06 in - WNW 16.1 mph - N/A   Clear
2:30 PM 60.8 °F - 28.4 °F 29% 30.04 in - NW 15.0 mph 28.8 mph N/A   Clear
3:00 PM 60.8 °F - 28.4 °F 29% 30.04 in - WNW 17.3 mph 29.9 mph N/A   Clear
3:30 PM 60.8 °F - 28.4 °F 29% 30.04 in - NW 13.8 mph 25.3 mph N/A   Clear
4:00 PM 62.6 °F - 30.2 °F 30% 30.04 in - NW 11.5 mph 25.3 mph N/A   Clear
4:30 PM 60.8 °F - 26.6 °F 27% 30.04 in - WNW 13.8 mph 25.3 mph N/A   Clear
5:00 PM 60.8 °F - 23.0 °F 23% 30.04 in - WNW 13.8 mph - N/A   Clear
5:30 PM 60.8 °F - 24.8 °F 25% 30.04 in - NW 12.7 mph - N/A   Clear
6:00 PM 59.0 °F - 26.6 °F 29% 30.04 in - WNW 15.0 mph - N/A   Clear
7:00 PM 60 °F - 24 °F 14% 30.06 in 25 mi NW 12.7 mph - -   Clear
7:00 PM 57.2 °F - 26.6 °F 31% 30.06 in - NW 11.5 mph - N/A   Clear
7:30 PM 55.4 °F - 30.2 °F 38% 30.06 in - WNW 11.5 mph - N/A   Clear
8:00 PM 53.6 °F - 32.0 °F 44% 30.06 in - WNW 9.2 mph - N/A   Clear
8:30 PM 55.4 °F - 28.4 °F 36% 30.06 in - WNW 15.0 mph - N/A   Clear
9:00 PM 55.4 °F - 30.2 °F 38% 30.06 in - WNW 15.0 mph - N/A   Clear
9:30 PM 50.0 °F - 33.8 °F 54% 30.09 in - WNW 9.2 mph - N/A   Clear
10:00 PM 51.8 °F - 32.0 °F 47% 30.09 in - WNW 12.7 mph - N/A   Clear
10:30 PM 50.0 °F - 32.0 °F 50% 30.09 in - West 10.4 mph - N/A   Clear
11:00 PM 50.0 °F - 32.0 °F 50% 30.09 in - West 12.7 mph - N/A   Clear
11:30 PM 50.0 °F - 32.0 °F 50% 30.09 in - West 11.5 mph - N/A   Clear